Regional Weather Roundup
Issued by NWS Mt. Holly, NJ

Home | Current Version | Previous Version | Text Only | Print | Product List | Glossary On
Versions: 1 2 3 4 5 6 7 8 9 10 11 12 13 14 15 16 17 18 19 20 21 22 23 24 25 26 27
000
ASUS41 KPHI 182212
RWRPHI

REGIONAL WEATHER ROUNDUP
NATIONAL WEATHER SERVICE MOUNT HOLLY NJ
600 PM EDT WED OCT 18 2017

NOTE:  "FAIR" INDICATES FEW OR NO CLOUDS BELOW 12,000 FEET WITH NO
SIGNIFICANT WEATHER AND/OR OBSTRUCTIONS TO VISIBILITY.

 * = STATION DOES NOT REPORT PRECIPITATION (E.G. RAIN, SNOW, ETC.)
        OR FOG.

NJZ015>026-182300-
SOUTHERN NEW JERSEY

CITY           SKY/WX    TMP DP  RH WIND       PRES   REMARKS
POMONA         CLEAR     66  48  52 SW6       30.29S
WILDWOOD*      CLEAR     64  50  60 S6        30.31S
MILLVILLE      CLEAR     65  51  60 CALM      30.29F
WRIGHTSTOWN    CLEAR     64  49  58 SW5       30.25S
MOUNT HOLLY    CLEAR     66  47  50 CALM      30.27F
TRENTON        CLEAR     69  45  41 SW3       30.26S

$$
NJZ001>014-182300-
NORTHERN NEW JERSEY

CITY           SKY/WX    TMP DP  RH WIND       PRES   REMARKS
SUSSEX         CLEAR     66  49  54 CALM      30.25R
ANDOVER*         N/A     65  48  54 CALM      30.26R
MORRISTOWN     CLEAR     70  46  43 W6        30.25S
NEWARK         CLEAR     71  44  37 SW10      30.25S
TETERBORO      CLEAR     72  47  40 S8        30.23S
CALDWELL       CLEAR     69  49  48 SW5       30.25S
SOMERVILLE     CLEAR     67  47  48 CALM      30.24S
ALLAIRE*       CLEAR     64  50  60 SE5       30.28S
TOMS RIVER*      N/A     65  51  60 SW3       30.28S

$$
PAZ043-044-047-054-055-060>062-066>071-182300-
EASTERN PENNSYLVANIA

CITY           SKY/WX    TMP DP  RH WIND       PRES   REMARKS
PHILADELPHIA   CLEAR     69  46  43 SW7       30.28S
NORTH PHILA    CLEAR     69  46  43 SW5       30.28S
BLUE BELL*     CLEAR     64  45  48 W3        30.29S
DOYLESTOWN     CLEAR     67  45  45 CALM      30.26S
QUAKERTOWN*    CLEAR     66  46  48 CALM      30.28S
PERKASIE*      FAIR      63  50  63 CALM      30.28S
POTTSTOWN      CLEAR     66  44  45 SW3       30.29S
LANCASTER      CLEAR     69  45  41 CALM      30.26F
COATESVILLE    CLEAR     64  48  55 CALM      30.29F
READING        CLEAR     66  47  50 SW6       30.26S
ALLENTOWN      CLEAR     66  45  46 SW7       30.26S
MOUNT POCONO   CLEAR     62  41  46 W5        30.27S
HAZLETON       CLEAR     64  41  42 SW3       30.30S
LEHIGHTON      FAIR      68  45  42 SW3       30.26S
WILKES BARRE   CLEAR     66  42  41 SW7       30.25S

$$
DEZALL-MDZ008-012-015-019-020-182300-
DELAWARE AND EASTERN MARYLAND

CITY           SKY/WX    TMP DP  RH WIND       PRES   REMARKS
WILMINGTON     CLEAR     66  45  46 SW7       30.29S
DOVER          CLEAR     67  45  45 SW7       30.28S
GEORGETOWN     CLEAR     66  46  48 SW5       30.30F
EASTON         CLEAR     64  41  42 SW7       30.34F
ABERDEEN       CLEAR     62  46  56 CALM      30.29F
PATUXENT       PTCLDY    63  50  62 SE6       30.31F
OCEAN CITY     CLEAR     61  46  57 SW6       30.32S
WALLOPS ISLAND CLEAR     60  40  47 SW5       30.33S
CAMBRIDGE      CLEAR     64  43  45 S3        30.31F
SALISBURY      CLEAR     62  48  60 W7        30.31S

$$
PAZ001-021-NYZ056-072-MDZ011-DCZ001-182300-
OTHER NEARBY LOCATIONS

CITY           SKY/WX    TMP DP  RH WIND       PRES   REMARKS
HARRISBURG     CLEAR     64  50  60 VRB5      30.26S
STATE COLLEGE  CLEAR     66  43  42 S8        30.25F
WILLIAMSPORT   CLEAR     65  51  60 CALM      30.22S
BINGHAMTON     CLEAR     63  42  46 SW5       30.23S
NEW YORK CITY  CLEAR     66  49  54 MISG      30.28R
BALTIMORE      PTCLDY    67  44  43 S3        30.29S
WASHINGTON DC  PTCLDY    67  42  40 S10       30.31S

$$




USA.gov is the U.S. government's official web portal to all federal, state and local government web resources and services.